LRCL Airport Information

Runway Information
Runway 07 Length 6070 ft width 98 ft
Elevation 1036 ft Threshold 0 ft Heading 79
Runway 25 Length 6070 ft Width 98 ft
Elevation 1025 ft Threshold 0 ft Heading 259
Runway 08 Length 0 ft width 0 ft
Elevation 1036 ft Threshold 0 ft Heading 0
Runway 26 Length 0 ft Width 0 ft
Elevation 1025 ft Threshold 0 ft Heading 0
Airport Frequencies
Type APP Name APP Frequency 125.1 MHZ
Type GCA Name PRECISION Frequency 118.7 MHZ
Type TWR Name TWR Frequency 134.4 MHZ
Airport Navaids
Type VOR-DME Name Cluj Frequency 111200 KHZ
Airport Weather Information & NOTAM
ADDS - METARS form results

(0618 UTC 19 August 2018)
 
METAR text: LRCL 190600Z VRB01KT CAVOK 20/16 Q1020
Conditions at: LRCL (CLUJ-NAPOCA/SOME, RO) observed 0600 UTC 19 August 2018
Temperature: 20.0°C (68°F)
Dewpoint: 16.0°C (61°F) [RH = 78%]
Pressure (altimeter): 30.12 inches Hg (1020.0 mb)
Winds: variable direction winds at 1 MPH (1 knots; 0.5 m/s)
Visibility: 6 or more miles (10+ km)
Ceiling: ceiling and visibility are OK
Clouds: unknown
Weather: no significant weather observed at this time

METAR text: LRCL 190530Z VRB01KT CAVOK 18/15 Q1020
Conditions at: LRCL (CLUJ-NAPOCA/SOME, RO) observed 0530 UTC 19 August 2018
Temperature: 18.0°C (64°F)
Dewpoint: 15.0°C (59°F) [RH = 83%]
Pressure (altimeter): 30.12 inches Hg (1020.0 mb)
Winds: variable direction winds at 1 MPH (1 knots; 0.5 m/s)
Visibility: 6 or more miles (10+ km)
Ceiling: ceiling and visibility are OK
Clouds: unknown
Weather: no significant weather observed at this time